This demonstration page uses our WeatherBlox Daily Observations layout. Learn more.

Hourly Observations for November 15, 2020

Temp ( °F °C ) Dew Point ( °F °C ) Humidity (%) Winds ( mph kmh ) Pressure ( in mb ) Visibility ( mi km ) Precip ( " mm )
12:15 am 00:15 Mostly Cloudy 41 5 37 3 87 87 E 3 6 30.22 1023 10 16.0934 0 0
12:35 am 00:35 Mostly Cloudy 41 5 37 3 87 87 Calm 30.22 1023 10 16.0934 0 0
12:55 am 00:55 Mostly Cloudy 41 5 36 2 81 81 Calm 30.22 1023 10 16.0934 0 0
1:15 am 01:15 Cloudy 43 6 36 2 76 76 Calm 30.21 1023 10 16.0934 0 0
1:35 am 01:35 Mostly Cloudy 43 6 36 2 76 76 Calm 30.2 1023 10 16.0934 0 0
1:55 am 01:55 Mostly Cloudy 43 6 36 2 76 76 Calm 30.2 1023 10 16.0934 0 0
2:15 am 02:15 Cloudy 43 6 37 3 81 81 Calm 30.2 1023 10 16.0934 0 0
2:35 am 02:35 Cloudy 43 6 37 3 81 81 Calm 30.2 1023 10 16.0934 0 0
2:55 am 02:55 Partly Cloudy 41 5 37 3 87 87 Calm 30.19 1022 10 16.0934 0 0
3:15 am 03:15 Clear 43 6 36 2 76 76 Calm 30.19 1022 10 16.0934 0 0
3:35 am 03:35 Partly Cloudy 41 5 37 3 87 87 ESE 3 6 30.18 1022 10 16.0934 0 0
3:55 am 03:55 Partly Cloudy 43 6 37 3 81 81 Calm 30.17 1022 10 16.0934 0 0
4:15 am 04:15 Partly Cloudy 41 5 37 3 87 87 Calm 30.17 1022 10 16.0934 0 0
4:35 am 04:35 Mostly Cloudy 43 6 39 4 87 87 Calm 30.16 1021 10 16.0934 0 0
4:55 am 04:55 Mostly Cloudy 43 6 37 3 81 81 Calm 30.16 1021 10 16.0934 0 0
5:15 am 05:15 Mostly Cloudy 43 6 39 4 87 87 Calm 30.15 1021 10 16.0934 0 0
5:35 am 05:35 Cloudy 45 7 41 5 87 87 SE 5 7 30.14 1021 10 16.0934 0 0
5:55 am 05:55 Cloudy 46 8 43 6 87 87 SW 3 6 30.15 1021 10 16.0934 0 0
6:15 am 06:15 Cloudy 46 8 43 6 87 87 SSE 5 7 30.14 1021 10 16.0934 0 0
6:35 am 06:35 Cloudy 46 8 43 6 87 87 S 7 11 30.13 1020 10 16.0934 0 0
6:55 am 06:55 Cloudy 46 8 45 7 93 93 S 8 13 30.13 1020 10 16.0934 0 0
7:15 am 07:15 Cloudy 46 8 45 7 93 93 S 10 17 30.11 1020 10 16.0934 0 0
7:35 am 07:35 Cloudy 46 8 45 7 93 93 S 12 19 30.11 1020 10 16.0934 0 0
7:55 am 07:55 Cloudy 46 8 45 7 93 93 S 6 9 30.11 1020 10 16.0934 0 0
8:15 am 08:15 Cloudy 46 8 45 7 93 93 S 9 15 30.09 1019 10 16.0934 0 0
8:35 am 08:35 Cloudy 48 9 45 7 87 87 S 10 17 30.08 1019 10 16.0934 0 0
8:55 am 08:55 Cloudy 48 9 45 7 87 87 S 13 20 30.07 1018 10 16.0934 0 0
9:15 am 09:15 Cloudy 50 10 45 7 82 82 S 15 24 30.06 1018 10 16.0934 0 0
9:35 am 09:35 Cloudy 50 10 46 8 88 88 S 8 13 30.05 1017 10 16.0934 0 0
9:55 am 09:55 Cloudy 50 10 46 8 88 88 SSW 9 15 30.03 1017 10 16.0934 0 0
10:15 am 10:15 Cloudy 52 11 46 8 82 82 S 10 17 30 1016 10 16.0934 0 0
10:35 am 10:35 Cloudy 52 11 46 8 82 82 S 8 13 29.98 1015 10 16.0934 0 0
10:55 am 10:55 Cloudy 54 12 48 9 82 82 SSW 8 13 29.98 1015 10 16.0934 0 0
11:15 am 11:15 Cloudy 54 12 50 10 88 88 SSW 10 17 29.96 1015 10 16.0934 0 0
11:35 am 11:35 Cloudy 55 13 50 10 82 82 S 14 22 29.92 1013 10 16.0934 0 0
11:55 am 11:55 Cloudy 59 15 50 10 72 72 S 12 19 29.9 1012 10 16.0934 0 0
12:15 pm 12:15 Cloudy 57 14 52 11 82 82 S 12 19 29.88 1012 10 16.0934 0 0
12:35 pm 12:35 Cloudy 57 14 52 11 82 82 S 13 20 29.85 1011 10 16.0934 0 0
12:55 pm 12:55 Cloudy 59 15 52 11 77 77 S 15 24 29.83 1010 10 16.0934 0 0
1:15 pm 13:15 Cloudy 61 16 54 12 77 77 S 18 30 29.83 1010 10 16.0934 0 0
1:35 pm 13:35 Cloudy 61 16 54 12 77 77 S 15 24 29.8 1009 10 16.0934 0 0
1:55 pm 13:55 Cloudy 61 16 54 12 77 77 S 17 28 29.78 1008 10 16.0934 0 0
2:15 pm 14:15 Cloudy 63 17 55 13 77 77 S 18 30 29.77 1008 10 16.0934 0 0
2:35 pm 14:35 Cloudy 63 17 55 13 77 77 S 17 28 29.75 1007 10 16.0934 0 0
2:55 pm 14:55 Cloudy 63 17 55 13 77 77 S 16 26 29.73 1007 10 16.0934 0 0
3:15 pm 15:15 Cloudy 63 17 57 14 83 83 SSW 16 26 29.73 1007 10 16.0934 0 0
3:35 pm 15:35 Cloudy 64 18 57 14 78 78 S 13 20 29.72 1007 10 16.0934 0 0
3:55 pm 15:55 Cloudy 64 18 59 15 83 83 SSW 14 22 29.72 1007 10 16.0934 0 0
4:15 pm 16:15 Cloudy 64 18 59 15 83 83 SSW 14 22 29.71 1006 10 16.0934 0 0
4:35 pm 16:35 Cloudy 64 18 59 15 83 83 SSW 16 26 29.7 1006 10 16.0934 0 0
4:55 pm 16:55 Mostly Cloudy 64 18 59 15 83 83 SW 17 28 29.7 1006 10 16.0934 0 0
5:15 pm 17:15 Mostly Cloudy 64 18 57 14 78 78 SW 16 26 29.71 1006 10 16.0934 0 0
5:35 pm 17:35 Cloudy 66 19 59 15 78 78 SW 17 28 29.7 1006 10 16.0934 0 0
5:55 pm 17:55 Partly Cloudy 64 18 59 15 83 83 SW 16 26 29.71 1006 10 16.0934 0 0
6:15 pm 18:15 Mostly Cloudy 64 18 59 15 83 83 SW 16 26 29.73 1007 10 16.0934 0 0
6:35 pm 18:35 Cloudy 61 16 50 10 68 68 NW 32 52 29.81 1009 10 16.0934 0 0
6:55 pm 18:55 Cloudy N/A N/A N/A NW 21 33 N/A 10 16.0934 0.01 0.254
7:15 pm 19:15 Cloudy N/A N/A N/A WNW 16 26 N/A 10 16.0934 0 0
7:35 pm 19:35 Cloudy 54 12 45 7 72 72 WNW 17 28 29.83 1010 10 16.0934 0 0
7:55 pm 19:55 Cloudy 55 13 43 6 63 63 WNW 16 26 29.84 1011 10 16.0934 0 0
8:15 pm 20:15 Cloudy 55 13 41 5 59 59 WNW 21 33 29.84 1011 10 16.0934 0 0
8:35 pm 20:35 Partly Cloudy 55 13 41 5 59 59 WNW 20 31 29.84 1011 10 16.0934 0 0
8:55 pm 20:55 Clear 55 13 41 5 59 59 WNW 21 33 29.84 1011 10 16.0934 0 0
9:15 pm 21:15 Clear 55 13 39 4 55 55 WNW 22 35 29.85 1011 10 16.0934 0 0
9:35 pm 21:35 Clear 55 13 39 4 55 55 WNW 16 26 29.88 1012 10 16.0934 0 0
9:55 pm 21:55 Clear 54 12 39 4 58 58 WNW 9 15 29.9 1013 10 16.0934 0 0
10:15 pm 22:15 Clear 54 12 37 3 54 54 WNW 13 20 29.91 1013 10 16.0934 0 0
10:35 pm 22:35 Clear 54 12 37 3 54 54 WNW 18 30 29.92 1013 10 16.0934 0 0
10:55 pm 22:55 Clear 54 12 36 2 51 51 WNW 17 28 29.93 1014 10 16.0934 0 0
11:15 pm 23:15 Clear 54 12 36 2 51 51 WNW 20 31 29.93 1014 10 16.0934 0 0
11:35 pm 23:35 Clear 52 11 34 1 50 50 WNW 17 28 29.94 1014 10 16.0934 0 0
11:55 pm 23:55 Clear 52 11 34 1 50 50 WNW 21 33 29.95 1014 10 16.0934 0 0

Powered by AerisWeather